Ailano, Italy

2:08 PM CEST on August 17, 2017 (GMT +0200)
Ailano

Weather History for 16253 - November, 2012

Change the Weather History Date:

Monday, November 26, 2012

  Actual Average Record
Temperature  
Mean Temperature 52 °F -  
Max Temperature 64 °F 58 °F - ()
Min Temperature 41 °F 41 °F - ()
Degree Days  
Heating Degree Days 12    
Growing Degree Days 2 (Base 50)    
Moisture  
Dew Point 47 °F    
Average Humidity 90    
Maximum Humidity 100    
Minimum Humidity 67    
Precipitation  
Precipitation 0.00 in 0.14 in - ()
Sea Level Pressure  
Sea Level Pressure 30.14 in    
Wind  
Wind Speed 4 mph ()    
Max Wind Speed 8 mph    
Max Gust Speed -    
Visibility 2.2 miles    
Events Fog    
T = Trace of Precipitation, MM = Missing Value Source: Averaged Metar Reports

Daily Weather History Graph

Daily Weather History Graph

Search for Another Location

Airport or City:

Trip Planner

Search our weather history database for the weather conditions in past years. The results will help you decide how hot, cold, wet, or windy it might be!

Date:

Astronomy

Nov. 26, 2012 Rise Set
Actual Time 7:04 AM CET 4:37 PM CET
Civil Twilight 6:33 AM CET 5:08 PM CET
Nautical Twilight 6:00 AM CET 5:41 PM CET
Astronomical Twilight 5:27 AM CET 6:14 PM CET
Moon 3:20 PM CET (11/26) 4:57 AM CET (11/26)
Length of Visible Light 10h 34m
Length of Day
9h 33m
Waxing Gibbous, 96% of the Moon is Illuminated
Nov 26
Waxing Gibbous
Nov 28
Full
Dec 6
Last Quarter
Dec 13
New
Dec 20
First Quarter

Hourly Weather History & Observations

Time (CET) Temp. Windchill Dew Point Humidity Pressure Visibility Wind Dir Wind Speed Gust Speed Precip Events Conditions
12:55 AM 41.0 °F 37.1 °F 41.0 °F 100% 30.18 in 1.9 mi NNE 5.8 mph - N/A   Partly Cloudy
1:00 AM 41 °F - 41 °F 99% 30.20 in 2 mi NNE 5.8 mph - -  
3:55 AM 41.0 °F 37.1 °F 41.0 °F 100% 30.18 in 1.2 mi NE 5.8 mph - N/A   Scattered Clouds
4:00 AM 41 °F - 40 °F 97% 30.19 in 1 mi NE 5.8 mph - -   Mist
5:55 AM 41.0 °F 38.0 °F 41.0 °F 100% 30.18 in 0.9 mi NE 4.6 mph - N/A   Scattered Clouds
6:55 AM 41.0 °F 38.0 °F 41.0 °F 100% 30.18 in 0.1 mi NE 4.6 mph - N/A Fog Fog
7:00 AM 41 °F - 41 °F 100% 30.19 in 0 mi NE 4.6 mph - -  
7:55 AM 41.0 °F 38.0 °F 41.0 °F 100% 30.18 in 0.2 mi NE 4.6 mph - N/A Fog Fog
8:33 AM 41.0 °F 36.4 °F 41.0 °F 100% 30.18 in 0.5 mi NNE 6.9 mph - N/A Fog Fog
8:55 AM 44.6 °F 41.4 °F 42.8 °F 93% 30.18 in 0.9 mi NE 5.8 mph - N/A   Scattered Clouds
9:31 AM 44.6 °F 41.4 °F 42.8 °F 93% 30.18 in 1.9 mi ENE 5.8 mph - N/A   Partly Cloudy
9:55 AM 50.0 °F - 48.2 °F 94% 30.18 in 1.9 mi NE 8.1 mph - N/A   Partly Cloudy
10:00 AM 50 °F - 49 °F 93% 30.21 in 2 mi NE 8.1 mph - -   Mist
11:55 AM 59.0 °F - 53.6 °F 82% 30.18 in 2.5 mi NE 3.5 mph - N/A   Mist
12:27 PM 59.0 °F - 53.6 °F 82% 30.18 in 3.1 mi NE 3.5 mph - N/A   Mist
12:55 PM 62.6 °F - 55.4 °F 77% 30.15 in 3.7 mi NNE 3.5 mph - N/A   Partly Cloudy
1:00 PM 63 °F - 55 °F 67% 30.16 in 4 mi NNE 3.5 mph - -  
1:55 PM 64.4 °F - 53.6 °F 68% 30.12 in 3.7 mi Calm Calm - N/A   Partly Cloudy
2:55 PM 64.4 °F - 53.6 °F 68% 30.12 in 3.7 mi Calm Calm - N/A   Partly Cloudy
3:55 PM 62.6 °F - 55.4 °F 77% 30.09 in 3.7 mi WNW 2.3 mph - N/A   Partly Cloudy
4:00 PM 63 °F - 55 °F 67% 30.12 in 4 mi WNW 2.3 mph - -   Mist
4:55 PM 59.0 °F - 53.6 °F 82% 30.09 in 3.7 mi Calm Calm - N/A   Scattered Clouds
5:55 PM 53.6 °F - 51.8 °F 94% 30.09 in 3.1 mi East 3.5 mph - N/A   Scattered Clouds
6:55 PM 50.0 °F - 48.2 °F 94% 30.09 in 3.1 mi ENE 2.3 mph - N/A   Scattered Clouds
7:00 PM 50 °F - 48 °F 89% 30.11 in 3 mi ENE 2.3 mph - -  
7:55 PM 48.2 °F - 46.4 °F 93% 30.09 in 1.9 mi NE 2.3 mph - N/A   Partly Cloudy
8:55 PM 46.4 °F - 44.6 °F 93% 30.09 in 1.9 mi NE 2.3 mph - N/A   Partly Cloudy
9:55 PM 46.4 °F 44.3 °F 44.6 °F 93% 30.09 in 1.9 mi ENE 4.6 mph - N/A   Partly Cloudy
10:00 PM 46 °F - 45 °F 96% 30.10 in 2 mi ENE 4.6 mph - -   Mist
10:55 PM 44.6 °F 41.4 °F 42.8 °F 93% 30.09 in 1.9 mi NNE 5.8 mph - N/A   Partly Cloudy
11:55 PM 44.6 °F 42.2 °F 44.6 °F 100% 30.09 in 1.9 mi NNE 4.6 mph - N/A   Partly Cloudy